Flag for U.S.A. Weather past 2 weeks in Oceanside, California, U.S.A.

Now
65 °F

Clear.


Feels Like: 65 °F
Forecast: 46 / 78 °F
Wind: No wind

Location: Oceanside Weather Reporting Station

Current Time: Mar 5, 2015 at 6:31:35 PM

Latest Report: Mar 5, 2015 at 5:52 PM


Visibility: 10 mi

Pressure: 30.13 "Hg

Humidity: 27%

Dew point: 30 °F

Location of OceansideLocation

Historic Weather in Oceanside — Graph

°F

Oceanside temperature yesterday

Maximum temperature yesterday: 67 °F (at 11:52 AM)
Minimum temperature yesterday: 41 °F (at 3:52 AM)
Average temperature yesterday: 54 °F

Past Weeks' High & Low Weather Summary

 TemperatureHumidityPressure
High73 °F (Mar 5, 10:52 AM)97% (Feb 19, 3:52 AM)30.24 "Hg (Feb 19, 3:52 AM)
Low38 °F (Feb 26, 6:03 AM)18% (Mar 5, 10:52 AM)29.76 "Hg (Feb 27, 3:52 PM)
Average56 °F73%29.98 "Hg
* Reported Feb 18 4:52 PM — Mar 5 4:52 PM, Oceanside, Weather by CustomWeather, © 2015

Note: Actual official high and low records may vary slightly from our data, if they occured in-between our weather recording intervals... More about our weather records

Advertising

Oceanside weather history for previous 24 hours

 ConditionsComfort  
Time TempWeatherWind HumidityBarometerVisibility
4:52 PM
Thu, Mar 5
68 °FSunny.5 mph27%30.14 "Hg10 mi
3:52 PM69 °FSunny.8 mph33%30.14 "Hg10 mi
2:52 PM70 °FSunny.9 mph32%30.16 "Hg10 mi
1:52 PM69 °FSunny.10 mph47%30.17 "Hg10 mi
12:52 PM69 °FSunny.12 mph41%30.19 "Hg10 mi
11:52 AM68 °FSunny.6 mph39%30.22 "Hg10 mi
10:52 AM73 °FSunny.5 mph18%30.23 "Hg10 mi
9:52 AM68 °FSunny.3 mph32%30.24 "Hg10 mi
8:52 AM60 °FSunny.6 mph41%30.24 "Hg10 mi
7:52 AM51 °FSunny.3 mph61%30.24 "Hg10 mi
6:52 AM43 °FSunny.3 mph71%30.22 "Hg10 mi
5:52 AM42 °FClear.5 mph73%30.20 "Hg10 mi
4:52 AM40 °FClear.No wind83%30.18 "Hg10 mi
3:52 AM40 °FClear.3 mph86%30.16 "Hg10 mi
2:52 AM39 °FClear.3 mph89%30.16 "Hg10 mi
1:52 AM43 °FClear.3 mph82%30.16 "Hg10 mi
12:52 AM42 °FClear.5 mph85%30.16 "Hg10 mi
11:52 PM
Wed, Mar 4
46 °FClear.No wind83%30.16 "Hg10 mi
10:52 PM46 °FClear.No wind86%30.15 "Hg10 mi
9:52 PM47 °FClear.No wind90%30.15 "Hg10 mi
8:52 PM49 °FClear.No wind84%30.14 "Hg10 mi
7:52 PM52 °FClear.No wind83%30.11 "Hg10 mi
6:52 PM59 °FClear.No wind78%30.09 "Hg10 mi
Weather by CustomWeather, © 2015

See weather overviewHow to use our weather pages